Torna al catalogo

COSMOS 1285 DEB

LostHEO
NORAD 33522·DEBRIS·🇷🇺 Russia

Lanciato Aug 4, 1981 da Plesetsk Cosmodrome

Loading…

Prossimi Passaggi (prossime 24 ore)

TLE

ObsoletoSource: Space-Track

Epoca: Dec 16, 2011, 05:24 UTC

1 33522U 81071X   11350.22500524  .00000741  00000-0  00000+0 0  9993
2 33522  67.7489  33.4910 6031592 132.8800 338.6183  1.98054330 45527

Traccia COSMOS 1285 DEB in tempo reale con AllMySat

Download on the App Store